Location: Berua Church
(35.0423°N, 88.5987°W)
Time: 09:40:09
(UTC+00:00)

SL-8 R/B - Pass Details

Date: 08 December 2019
Orbit: 657 x 667 km, 48.4° (Epoch: 27 January)

Event Time Altitude Azimuth Distance (km) Brightness Sun altitude
Rises 23:30:29 0° 305° (NW) 2,998 7.6 -9.8°
Reaches altitude 10° 23:32:50 10° 304° (WNW) 2,085 6.8 -10.2°
Maximum altitude 23:37:38 72° 220° (SW) 701 4.0 -11.1°
Drops below altitude 10° 23:42:25 10° 137° (SE) 2,079 6.0 -12.1°
Sets 23:44:46 0° 135° (SE) 2,990 6.8 -12.5°
